Time,TemperatureF,DewpointF,PressureIn,WindDirection,WindDirectionDegrees,WindSpeedMPH,WindSpeedGustMPH,Humidity,HourlyPrecipIn,Conditions,Clouds,dailyrainin,SoftwareType,DateUTC
2013-03-09 00:00:00,35.6,25.7,30.26,NNW,338,1.3,1.3,67,0.00,,,0.00,WUHU216HW,2013-03-09 05:00:00,
2013-03-09 00:05:00,35.6,25.7,30.26,NNW,338,1.3,1.3,67,0.00,,,0.00,WUHU216HW,2013-03-09 05:05:00,
2013-03-09 00:30:00,35.5,25.6,30.26,NW,315,2.2,2.2,67,0.00,,,0.00,WUHU216HW,2013-03-09 05:30:00,
2013-03-09 00:35:00,35.5,25.6,30.26,NW,315,2.2,2.2,67,0.00,,,0.00,WUHU216HW,2013-03-09 05:35:00,
2013-03-09 01:00:00,35.1,25.2,30.27,NW,315,0.0,0.0,67,0.00,,,0.00,WUHU216HW,2013-03-09 06:00:00,
2013-03-09 01:05:00,35.1,25.2,30.27,NW,315,0.0,0.0,67,0.00,,,0.00,WUHU216HW,2013-03-09 06:05:00,
2013-03-09 01:30:00,34.2,25.0,30.27,WNW,293,0.7,0.7,69,0.00,,,0.00,WUHU216HW,2013-03-09 06:30:00,
2013-03-09 01:35:00,34.2,25.0,30.27,WNW,293,0.7,0.7,69,0.00,,,0.00,WUHU216HW,2013-03-09 06:35:00,
2013-03-09 02:00:00,33.1,23.7,30.28,NNW,338,0.9,0.9,68,0.00,,,0.00,WUHU216HW,2013-03-09 07:00:00,
2013-03-09 02:05:00,33.1,23.7,30.28,NNW,338,0.9,0.9,68,0.00,,,0.00,WUHU216HW,2013-03-09 07:05:00,
2013-03-09 02:30:00,33.7,24.5,30.27,West,270,0.7,0.7,69,0.00,,,0.00,WUHU216HW,2013-03-09 07:30:00,
2013-03-09 02:35:00,33.7,24.5,30.27,West,270,0.7,0.7,69,0.00,,,0.00,WUHU216HW,2013-03-09 07:35:00,
2013-03-09 03:00:00,31.3,22.7,30.27,WSW,248,0.0,0.0,70,0.00,,,0.00,WUHU216HW,2013-03-09 08:00:00,
2013-03-09 03:05:00,31.3,22.7,30.27,WSW,248,0.0,0.0,70,0.00,,,0.00,WUHU216HW,2013-03-09 08:05:00,
2013-03-09 03:30:00,29.9,21.2,30.26,SSW,203,0.0,0.0,70,0.00,,,0.00,WUHU216HW,2013-03-09 08:30:00,
2013-03-09 03:35:00,29.9,21.2,30.26,SSW,203,0.0,0.0,70,0.00,,,0.00,WUHU216HW,2013-03-09 08:35:00,
2013-03-09 04:00:00,28.3,20.7,30.26,SW,225,0.4,0.4,73,0.00,,,0.00,WUHU216HW,2013-03-09 09:00:00,
2013-03-09 04:05:00,28.3,20.7,30.26,SW,225,0.4,0.4,73,0.00,,,0.00,WUHU216HW,2013-03-09 09:05:00,
2013-03-09 04:30:00,27.5,20.4,30.27,WSW,248,0.0,0.0,74,0.00,,,0.00,WUHU216HW,2013-03-09 09:30:00,
2013-03-09 04:35:00,27.5,20.4,30.27,WSW,248,0.0,0.0,74,0.00,,,0.00,WUHU216HW,2013-03-09 09:35:00,
2013-03-09 05:00:00,26.8,19.9,30.28,SW,225,0.7,0.7,75,0.00,,,0.00,WUHU216HW,2013-03-09 10:00:00,
2013-03-09 05:05:00,26.8,19.9,30.28,SW,225,0.7,0.7,75,0.00,,,0.00,WUHU216HW,2013-03-09 10:05:00,
2013-03-09 05:30:00,26.8,20.2,30.28,WSW,248,0.0,0.0,76,0.00,,,0.00,WUHU216HW,2013-03-09 10:30:00,
2013-03-09 05:35:00,26.8,20.2,30.28,WSW,248,0.0,0.0,76,0.00,,,0.00,WUHU216HW,2013-03-09 10:35:00,
2013-03-09 06:00:00,25.7,19.5,30.28,WSW,248,0.0,0.0,77,0.00,,,0.00,WUHU216HW,2013-03-09 11:00:00,
2013-03-09 06:05:00,25.7,19.5,30.28,WSW,248,0.0,0.0,77,0.00,,,0.00,WUHU216HW,2013-03-09 11:05:00,
2013-03-09 06:30:00,25.4,19.4,30.29,SW,225,0.2,0.2,78,0.00,,,0.00,WUHU216HW,2013-03-09 11:30:00,
2013-03-09 06:35:00,25.4,19.4,30.29,SW,225,0.2,0.2,78,0.00,,,0.00,WUHU216HW,2013-03-09 11:35:00,
2013-03-09 07:00:00,25.4,19.8,30.29,SW,225,1.8,1.8,79,0.00,,,0.00,WUHU216HW,2013-03-09 12:00:00,
2013-03-09 07:05:00,25.4,19.8,30.29,SW,225,1.6,1.8,79,0.00,,,0.00,WUHU216HW,2013-03-09 12:05:00,
2013-03-09 07:30:00,26.6,21.5,30.30,SW,225,0.7,0.7,81,0.00,,,0.00,WUHU216HW,2013-03-09 12:30:00,
2013-03-09 07:35:00,26.6,21.5,30.30,SW,225,0.7,0.7,81,0.00,,,0.00,WUHU216HW,2013-03-09 12:35:00,
2013-03-09 08:00:00,30.1,24.7,30.31,West,270,0.7,0.7,80,0.00,,,0.00,WUHU216HW,2013-03-09 13:00:00,
2013-03-09 08:05:00,30.1,24.7,30.31,West,270,0.7,0.7,80,0.00,,,0.00,WUHU216HW,2013-03-09 13:05:00,
2013-03-09 08:30:00,34.2,26.4,30.32,NNW,338,0.4,0.4,73,0.00,,,0.00,WUHU216HW,2013-03-09 13:30:00,
2013-03-09 08:35:00,34.2,26.4,30.32,NNW,338,0.4,0.4,73,0.00,,,0.00,WUHU216HW,2013-03-09 13:35:00,
2013-03-09 09:00:00,37.8,28.2,30.33,South,180,0.2,0.2,68,0.00,,,0.00,WUHU216HW,2013-03-09 14:00:00,
2013-03-09 09:05:00,37.8,28.2,30.33,South,180,0.2,0.2,68,0.00,,,0.00,WUHU216HW,2013-03-09 14:05:00,
2013-03-09 09:30:00,41.4,29.3,30.33,NE,45,1.3,1.3,62,0.00,,,0.00,WUHU216HW,2013-03-09 14:30:00,
2013-03-09 09:35:00,41.4,29.3,30.33,NE,45,1.3,1.3,62,0.00,,,0.00,WUHU216HW,2013-03-09 14:35:00,
2013-03-09 09:43:00,43.0,28.4,30.32,ENE,68,4.7,4.7,56,0.00,,,0.00,WUHU216HW,2013-03-09 14:43:00,
2013-03-09 09:48:00,43.6,28.0,30.32,NNE,23,4.3,4.7,54,0.00,,,0.00,WUHU216HW,2013-03-09 14:48:00,
2013-03-09 09:53:00,43.7,27.7,30.32,NNE,23,2.5,4.7,53,0.00,,,0.00,WUHU216HW,2013-03-09 14:53:00,
2013-03-09 09:58:00,43.9,26.0,30.32,NW,315,2.0,4.3,49,0.00,,,0.00,WUHU216HW,2013-03-09 14:58:00,
2013-03-09 10:03:00,44.1,25.7,30.32,North,0,1.3,3.4,48,0.00,,,0.00,WUHU216HW,2013-03-09 15:03:00,
2013-03-09 10:08:00,44.3,26.3,30.32,NNW,338,4.0,4.3,49,0.00,,,0.00,WUHU216HW,2013-03-09 15:08:00,
2013-03-09 10:13:00,44.6,28.1,30.32,NNW,338,2.2,4.3,52,0.00,,,0.00,WUHU216HW,2013-03-09 15:13:00,
2013-03-09 10:18:00,45.0,26.5,30.32,North,0,2.5,3.8,48,0.00,,,0.00,WUHU216HW,2013-03-09 15:18:00,
2013-03-09 10:23:00,45.5,28.4,30.31,NNE,23,2.7,4.9,51,0.00,,,0.00,WUHU216HW,2013-03-09 15:23:00,
2013-03-09 10:28:00,46.4,27.2,30.31,NNW,338,1.6,4.9,47,0.00,,,0.00,WUHU216HW,2013-03-09 15:28:00,
2013-03-09 10:33:00,47.0,29.3,30.31,North,0,0.9,4.0,50,0.00,,,0.00,WUHU216HW,2013-03-09 15:33:00,
2013-03-09 10:38:00,47.3,28.5,30.31,North,0,1.8,4.0,48,0.00,,,0.00,WUHU216HW,2013-03-09 15:38:00,
2013-03-09 10:43:00,47.9,29.5,30.31,North,0,2.7,5.4,49,0.00,,,0.00,WUHU216HW,2013-03-09 15:43:00,
2013-03-09 10:48:00,48.4,30.1,30.30,North,0,3.6,5.4,49,0.00,,,0.00,WUHU216HW,2013-03-09 15:48:00,
2013-03-09 10:53:00,48.4,26.8,30.30,NNW,338,1.1,4.3,43,0.00,,,0.00,WUHU216HW,2013-03-09 15:53:00,
2013-03-09 10:58:00,48.6,28.1,30.30,NNE,23,3.4,4.3,45,0.00,,,0.00,WUHU216HW,2013-03-09 15:58:00,
2013-03-09 11:03:00,49.1,28.0,30.30,NE,45,1.3,3.4,44,0.00,,,0.00,WUHU216HW,2013-03-09 16:03:00,
2013-03-09 11:08:00,49.9,25.8,30.30,NNE,23,4.0,4.0,39,0.00,,,0.00,WUHU216HW,2013-03-09 16:08:00,
2013-03-09 11:13:00,49.9,25.8,30.30,NNE,23,1.3,4.7,39,0.00,,,0.00,WUHU216HW,2013-03-09 16:13:00,
2013-03-09 11:18:00,49.7,28.0,30.30,NNE,23,1.3,4.7,43,0.00,,,0.00,WUHU216HW,2013-03-09 16:18:00,
2013-03-09 11:23:00,50.6,28.3,30.30,SSE,158,0.2,3.4,42,0.00,,,0.00,WUHU216HW,2013-03-09 16:23:00,
2013-03-09 11:28:00,51.1,26.3,30.30,North,0,4.0,4.0,38,0.00,,,0.00,WUHU216HW,2013-03-09 16:28:00,
2013-03-09 11:33:00,50.8,26.7,30.30,NNW,338,2.7,4.0,39,0.00,,,0.00,WUHU216HW,2013-03-09 16:33:00,
2013-03-09 11:38:00,50.9,28.5,30.30,NNE,23,3.8,4.7,42,0.00,,,0.00,WUHU216HW,2013-03-09 16:38:00,
2013-03-09 11:43:00,51.3,28.4,30.30,SSW,203,1.1,4.7,41,0.00,,,0.00,WUHU216HW,2013-03-09 16:43:00,
2013-03-09 11:48:00,51.8,28.3,30.30,North,0,2.9,2.9,40,0.00,,,0.00,WUHU216HW,2013-03-09 16:48:00,
2013-03-09 11:53:00,51.7,26.7,30.30,NW,315,1.1,3.1,38,0.00,,,0.00,WUHU216HW,2013-03-09 16:53:00,
2013-03-09 11:58:00,51.1,26.3,30.30,SSW,203,2.5,3.1,38,0.00,,,0.00,WUHU216HW,2013-03-09 16:58:00,
2013-03-09 12:03:00,50.9,24.8,30.30,West,270,1.8,2.7,36,0.00,,,0.00,WUHU216HW,2013-03-09 17:03:00,
2013-03-09 12:08:00,51.3,26.4,30.29,NW,315,1.1,2.7,38,0.00,,,0.00,WUHU216HW,2013-03-09 17:08:00,
2013-03-09 12:13:00,52.6,30.6,30.29,NNE,23,2.0,2.9,43,0.00,,,0.00,WUHU216HW,2013-03-09 17:13:00,
2013-03-09 12:18:00,54.0,30.3,30.29,NE,45,3.1,4.0,40,0.00,,,0.00,WUHU216HW,2013-03-09 17:18:00,
2013-03-09 12:23:00,54.7,30.2,30.28,SE,135,0.4,4.0,39,0.00,,,0.00,WUHU216HW,2013-03-09 17:23:00,
2013-03-09 12:28:00,54.7,28.1,30.28,SSW,203,2.5,2.9,36,0.00,,,0.00,WUHU216HW,2013-03-09 17:28:00,
2013-03-09 12:33:00,55.1,29.8,30.28,South,180,0.2,2.9,38,0.00,,,0.00,WUHU216HW,2013-03-09 17:33:00,
2013-03-09 12:38:00,56.2,27.9,30.28,West,270,1.6,1.6,34,0.00,,,0.00,WUHU216HW,2013-03-09 17:38:00,
2013-03-09 12:43:00,55.1,26.3,30.27,WNW,293,1.8,3.4,33,0.00,,,0.00,WUHU216HW,2013-03-09 17:43:00,
2013-03-09 12:48:00,54.2,28.3,30.27,WNW,293,3.6,3.6,37,0.00,,,0.00,WUHU216HW,2013-03-09 17:48:00,
2013-03-09 12:53:00,55.1,31.1,30.27,NE,45,2.5,4.7,40,0.00,,,0.00,WUHU216HW,2013-03-09 17:53:00,
2013-03-09 12:58:00,55.3,30.6,30.27,NE,45,3.6,4.7,39,0.00,,,0.00,WUHU216HW,2013-03-09 17:58:00,
2013-03-09 13:03:00,55.4,26.6,30.26,WNW,293,2.0,3.6,33,0.00,,,0.00,WUHU216HW,2013-03-09 18:03:00,
2013-03-09 13:08:00,55.8,29.7,30.26,North,0,4.3,4.3,37,0.00,,,0.00,WUHU216HW,2013-03-09 18:08:00,
2013-03-09 13:13:00,56.9,31.4,30.26,North,0,1.1,5.4,38,0.00,,,0.00,WUHU216HW,2013-03-09 18:13:00,
2013-03-09 13:18:00,58.0,32.4,30.26,East,90,2.5,5.4,38,0.00,,,0.00,WUHU216HW,2013-03-09 18:18:00,
2013-03-09 13:23:00,59.4,32.2,30.25,NNW,338,0.7,2.7,36,0.00,,,0.00,WUHU216HW,2013-03-09 18:23:00,
2013-03-09 13:28:00,58.7,27.4,30.25,NW,315,2.5,3.4,30,0.00,,,0.00,WUHU216HW,2013-03-09 18:28:00,
2013-03-09 13:33:00,58.5,29.3,30.25,NE,45,2.0,3.4,33,0.00,,,0.00,WUHU216HW,2013-03-09 18:33:00,
2013-03-09 13:38:00,59.8,33.3,30.24,East,90,1.1,2.7,37,0.00,,,0.00,WUHU216HW,2013-03-09 18:38:00,
2013-03-09 13:43:00,60.7,28.1,30.25,NNW,338,1.8,2.2,29,0.00,,,0.00,WUHU216HW,2013-03-09 18:43:00,
2013-03-09 13:48:00,59.4,30.2,30.24,North,0,1.6,2.5,33,0.00,,,0.00,WUHU216HW,2013-03-09 18:48:00,
2013-03-09 13:53:00,59.4,30.9,30.24,NE,45,4.7,4.7,34,0.00,,,0.00,WUHU216HW,2013-03-09 18:53:00,
2013-03-09 13:58:00,59.8,29.0,30.24,North,0,2.7,4.7,31,0.00,,,0.00,WUHU216HW,2013-03-09 18:58:00,
2013-03-09 14:03:00,60.1,30.7,30.24,ENE,68,1.8,4.7,33,0.00,,,0.00,WUHU216HW,2013-03-09 19:03:00,
2013-03-09 14:08:00,61.0,33.7,30.24,SSW,203,0.4,4.0,36,0.00,,,0.00,WUHU216HW,2013-03-09 19:08:00,
2013-03-09 14:13:00,61.9,33.0,30.24,West,270,0.4,4.0,34,0.00,,,0.00,WUHU216HW,2013-03-09 19:13:00,
2013-03-09 14:18:00,62.1,31.1,30.24,South,180,1.1,2.5,31,0.00,,,0.00,WUHU216HW,2013-03-09 19:18:00,
2013-03-09 14:23:00,61.6,31.2,30.24,NNE,23,1.8,3.4,32,0.00,,,0.00,WUHU216HW,2013-03-09 19:23:00,
2013-03-09 14:28:00,61.7,32.9,30.24,NE,45,0.0,3.4,34,0.00,,,0.00,WUHU216HW,2013-03-09 19:28:00,
2013-03-09 14:33:00,62.3,31.9,30.24,North,0,3.6,4.0,32,0.00,,,0.00,WUHU216HW,2013-03-09 19:33:00,
2013-03-09 14:38:00,61.9,31.6,30.24,NE,45,2.5,4.0,32,0.00,,,0.00,WUHU216HW,2013-03-09 19:38:00,
2013-03-09 14:43:00,61.2,26.7,30.24,NNW,338,2.0,4.0,27,0.00,,,0.00,WUHU216HW,2013-03-09 19:43:00,
2013-03-09 14:48:00,60.3,26.8,30.24,NNW,338,1.6,3.4,28,0.00,,,0.00,WUHU216HW,2013-03-09 19:48:00,
2013-03-09 14:53:00,60.1,27.6,30.24,West,270,2.2,4.3,29,0.00,,,0.00,WUHU216HW,2013-03-09 19:53:00,
2013-03-09 14:58:00,60.3,29.4,30.24,South,180,1.3,4.5,31,0.00,,,0.00,WUHU216HW,2013-03-09 19:58:00,
2013-03-09 15:03:00,60.8,29.9,30.24,SSW,203,0.2,4.5,31,0.00,,,0.00,WUHU216HW,2013-03-09 20:03:00,
2013-03-09 15:08:00,60.7,28.1,30.24,NNE,23,1.8,3.4,29,0.00,,,0.00,WUHU216HW,2013-03-09 20:08:00,
2013-03-09 15:13:00,60.7,28.1,30.23,SSE,158,1.8,2.5,29,0.00,,,0.00,WUHU216HW,2013-03-09 20:13:00,
2013-03-09 15:18:00,61.2,30.3,30.23,WNW,293,0.7,4.5,31,0.00,,,0.00,WUHU216HW,2013-03-09 20:18:00,
2013-03-09 15:23:00,61.2,27.5,30.23,SSW,203,3.6,4.5,28,0.00,,,0.00,WUHU216HW,2013-03-09 20:23:00,
2013-03-09 15:28:00,60.7,27.1,30.23,WNW,293,0.4,3.6,28,0.00,,,0.00,WUHU216HW,2013-03-09 20:28:00,
2013-03-09 15:33:00,60.5,26.0,30.23,WNW,293,0.7,3.4,27,0.00,,,0.00,WUHU216HW,2013-03-09 20:33:00,
2013-03-09 15:38:00,60.1,26.6,30.23,North,0,2.7,2.7,28,0.00,,,0.00,WUHU216HW,2013-03-09 20:38:00,
2013-03-09 15:43:00,60.3,23.0,30.22,WNW,293,0.9,2.7,24,0.00,,,0.00,WUHU216HW,2013-03-09 20:43:00,
2013-03-09 15:48:00,60.1,27.6,30.22,NE,45,1.3,2.2,29,0.00,,,0.00,WUHU216HW,2013-03-09 20:48:00,
2013-03-09 15:53:00,60.7,28.1,30.22,NNE,23,1.1,2.2,29,0.00,,,0.00,WUHU216HW,2013-03-09 20:53:00,
2013-03-09 15:58:00,60.7,29.0,30.22,North,0,0.4,2.2,30,0.00,,,0.00,WUHU216HW,2013-03-09 20:58:00,
2013-03-09 16:03:00,60.8,29.9,30.22,NE,45,0.0,3.1,31,0.00,,,0.00,WUHU216HW,2013-03-09 21:03:00,
2013-03-09 16:08:00,60.8,29.2,30.22,NE,45,1.1,3.1,30,0.00,,,0.00,WUHU216HW,2013-03-09 21:08:00,
2013-03-09 16:13:00,60.8,29.9,30.22,SE,135,1.1,2.5,31,0.00,,,0.00,WUHU216HW,2013-03-09 21:13:00,
2013-03-09 16:18:00,61.0,29.4,30.22,South,180,0.4,1.8,30,0.00,,,0.00,WUHU216HW,2013-03-09 21:18:00,
2013-03-09 16:23:00,60.7,27.1,30.22,SSW,203,1.1,2.0,28,0.00,,,0.00,WUHU216HW,2013-03-09 21:23:00,
2013-03-09 16:28:00,60.5,26.0,30.22,SSE,158,0.7,2.0,27,0.00,,,0.00,WUHU216HW,2013-03-09 21:28:00,
2013-03-09 16:33:00,60.1,23.8,30.22,West,270,0.4,1.1,25,0.00,,,0.00,WUHU216HW,2013-03-09 21:33:00,
2013-03-09 16:38:00,59.8,27.4,30.22,SW,225,2.5,2.5,29,0.00,,,0.00,WUHU216HW,2013-03-09 21:38:00,
2013-03-09 16:43:00,59.4,28.0,30.22,WSW,248,0.9,2.5,30,0.00,,,0.00,WUHU216HW,2013-03-09 21:43:00,
2013-03-09 16:48:00,58.9,26.6,30.22,SSW,203,0.4,2.5,29,0.00,,,0.00,WUHU216HW,2013-03-09 21:48:00,
2013-03-09 16:53:00,58.3,25.1,30.21,SW,225,3.8,3.8,28,0.00,,,0.00,WUHU216HW,2013-03-09 21:53:00,
2013-03-09 16:58:00,58.1,25.9,30.21,South,180,0.2,4.0,29,0.00,,,0.00,WUHU216HW,2013-03-09 21:58:00,
2013-03-09 17:03:00,58.1,26.9,30.21,SSW,203,0.4,4.0,30,0.00,,,0.00,WUHU216HW,2013-03-09 22:03:00,
2013-03-09 17:08:00,57.8,25.7,30.21,SSW,203,1.8,2.9,29,0.00,,,0.00,WUHU216HW,2013-03-09 22:08:00,
2013-03-09 17:13:00,57.4,25.3,30.21,SSW,203,1.6,4.0,29,0.00,,,0.00,WUHU216HW,2013-03-09 22:13:00,
2013-03-09 17:18:00,57.2,25.1,30.21,WSW,248,1.1,4.0,29,0.00,,,0.00,WUHU216HW,2013-03-09 22:18:00,
2013-03-09 17:23:00,56.9,24.9,30.21,SW,225,1.1,2.5,29,0.00,,,0.00,WUHU216HW,2013-03-09 22:23:00,
2013-03-09 17:28:00,56.9,25.7,30.21,SW,225,1.8,3.1,30,0.00,,,0.00,WUHU216HW,2013-03-09 22:28:00,
2013-03-09 17:33:00,57.1,25.9,30.21,WSW,248,0.4,3.1,30,0.00,,,0.00,WUHU216HW,2013-03-09 22:33:00,
2013-03-09 17:38:00,56.9,25.7,30.21,SW,225,0.7,1.3,30,0.00,,,0.00,WUHU216HW,2013-03-09 22:38:00,
2013-03-09 17:43:00,56.5,25.5,30.21,SSW,203,0.9,1.8,30,0.00,,,0.00,WUHU216HW,2013-03-09 22:43:00,
2013-03-09 17:48:00,56.5,26.2,30.21,SSW,203,0.4,1.8,31,0.00,,,0.00,WUHU216HW,2013-03-09 22:48:00,
2013-03-09 17:53:00,56.2,25.8,30.21,South,180,0.2,1.1,31,0.00,,,0.00,WUHU216HW,2013-03-09 22:53:00,
2013-03-09 17:58:00,56.0,25.7,30.21,South,180,0.0,1.1,31,0.00,,,0.00,WUHU216HW,2013-03-09 22:58:00,
2013-03-09 18:03:00,55.6,26.0,30.21,South,180,0.0,0.4,32,0.00,,,0.00,WUHU216HW,2013-03-09 23:03:00,
2013-03-09 18:08:00,55.1,25.6,30.21,South,180,0.0,0.2,32,0.00,,,0.00,WUHU216HW,2013-03-09 23:08:00,
2013-03-09 18:13:00,54.5,25.1,30.22,South,180,0.0,0.0,32,0.00,,,0.00,WUHU216HW,2013-03-09 23:13:00,
2013-03-09 18:18:00,54.0,25.4,30.22,South,180,0.0,0.7,33,0.00,,,0.00,WUHU216HW,2013-03-09 23:18:00,
2013-03-09 18:23:00,53.3,24.8,30.22,South,180,0.0,0.7,33,0.00,,,0.00,WUHU216HW,2013-03-09 23:23:00,
2013-03-09 18:28:00,52.2,23.8,30.22,South,180,0.0,0.0,33,0.00,,,0.00,WUHU216HW,2013-03-09 23:28:00,
2013-03-09 18:33:00,51.5,23.9,30.22,South,180,0.0,0.0,34,0.00,,,0.00,WUHU216HW,2013-03-09 23:33:00,
2013-03-09 18:38:00,50.9,23.3,30.22,South,180,0.0,0.0,34,0.00,,,0.00,WUHU216HW,2013-03-09 23:38:00,
2013-03-09 18:43:00,50.0,23.2,30.22,South,180,0.0,0.0,35,0.00,,,0.00,WUHU216HW,2013-03-09 23:43:00,
2013-03-09 18:48:00,49.5,23.4,30.22,South,180,0.0,0.0,36,0.00,,,0.00,WUHU216HW,2013-03-09 23:48:00,
2013-03-09 18:53:00,49.1,23.8,30.22,South,180,0.0,0.0,37,0.00,,,0.00,WUHU216HW,2013-03-09 23:53:00,
2013-03-09 18:58:00,48.6,23.3,30.22,South,180,0.0,0.0,37,0.00,,,0.00,WUHU216HW,2013-03-09 23:58:00,
2013-03-09 19:03:00,48.2,23.7,30.22,South,180,0.0,0.0,38,0.00,,,0.00,WUHU216HW,2013-03-10 00:03:00,
2013-03-09 19:08:00,47.5,23.0,30.22,South,180,0.0,0.0,38,0.00,,,0.00,WUHU216HW,2013-03-10 00:08:00,
2013-03-09 19:13:00,46.6,22.2,30.22,South,180,0.0,0.0,38,0.00,,,0.00,WUHU216HW,2013-03-10 00:13:00,
2013-03-09 19:18:00,46.1,22.4,30.23,South,180,0.0,0.0,39,0.00,,,0.00,WUHU216HW,2013-03-10 00:18:00,
2013-03-09 19:23:00,45.7,22.8,30.23,South,180,0.0,0.0,40,0.00,,,0.00,WUHU216HW,2013-03-10 00:23:00,
2013-03-09 19:28:00,45.2,22.8,30.22,South,180,0.0,0.0,41,0.00,,,0.00,WUHU216HW,2013-03-10 00:28:00,
2013-03-09 19:33:00,44.5,23.2,30.23,South,180,0.0,0.0,43,0.00,,,0.00,WUHU216HW,2013-03-10 00:33:00,
2013-03-09 19:38:00,44.1,23.5,30.23,South,180,0.0,0.0,44,0.00,,,0.00,WUHU216HW,2013-03-10 00:38:00,
2013-03-09 19:43:00,43.6,24.6,30.23,South,180,0.0,0.0,47,0.00,,,0.00,WUHU216HW,2013-03-10 00:43:00,
2013-03-09 19:48:00,43.2,23.8,30.23,South,180,0.0,0.0,46,0.00,,,0.00,WUHU216HW,2013-03-10 00:48:00,
2013-03-09 19:53:00,42.8,23.9,30.23,South,180,0.0,0.0,47,0.00,,,0.00,WUHU216HW,2013-03-10 00:53:00,
2013-03-09 19:58:00,42.5,24.1,30.23,South,180,0.0,0.0,48,0.00,,,0.00,WUHU216HW,2013-03-10 00:58:00,
2013-03-09 20:03:00,42.1,24.3,30.23,South,180,0.0,0.0,49,0.00,,,0.00,WUHU216HW,2013-03-10 01:03:00,
2013-03-09 20:08:00,41.6,23.8,30.23,South,180,0.0,0.0,49,0.00,,,0.00,WUHU216HW,2013-03-10 01:08:00,
2013-03-09 20:13:00,41.4,23.6,30.23,South,180,0.0,0.0,49,0.00,,,0.00,WUHU216HW,2013-03-10 01:13:00,
2013-03-09 20:18:00,41.2,23.4,30.23,South,180,0.0,0.0,49,0.00,,,0.00,WUHU216HW,2013-03-10 01:18:00,
2013-03-09 20:23:00,41.0,23.2,30.23,South,180,0.0,0.0,49,0.00,,,0.00,WUHU216HW,2013-03-10 01:23:00,
2013-03-09 20:28:00,40.9,23.6,30.23,South,180,0.4,0.4,50,0.00,,,0.00,WUHU216HW,2013-03-10 01:28:00,
2013-03-09 20:33:00,40.5,22.8,30.23,South,180,0.0,0.4,49,0.00,,,0.00,WUHU216HW,2013-03-10 01:33:00,
2013-03-09 20:38:00,40.1,23.4,30.23,South,180,0.0,0.0,51,0.00,,,0.00,WUHU216HW,2013-03-10 01:38:00,
2013-03-09 20:43:00,39.8,24.0,30.23,South,180,0.0,0.0,53,0.00,,,0.00,WUHU216HW,2013-03-10 01:43:00,
2013-03-09 20:48:00,39.4,23.6,30.23,SSW,203,0.9,0.9,53,0.00,,,0.00,WUHU216HW,2013-03-10 01:48:00,
2013-03-09 20:54:00,39.2,24.8,30.23,SW,225,1.8,1.8,56,0.00,,,0.00,WUHU216HW,2013-03-10 01:54:00,
2013-03-09 20:59:00,38.9,24.4,30.23,SW,225,1.8,1.8,56,0.00,,,0.00,WUHU216HW,2013-03-10 01:59:00,
2013-03-09 21:04:00,38.5,24.9,30.24,SW,225,1.6,2.5,58,0.00,,,0.00,WUHU216HW,2013-03-10 02:04:00,
2013-03-09 21:09:00,38.2,24.7,30.24,WSW,248,1.1,2.5,58,0.00,,,0.00,WUHU216HW,2013-03-10 02:09:00,
2013-03-09 21:15:00,38.2,24.7,30.24,SW,225,1.1,1.6,58,0.00,,,0.00,WUHU216HW,2013-03-10 02:15:00,
2013-03-09 21:20:00,38.2,24.7,30.24,SW,225,2.7,3.1,58,0.00,,,0.00,WUHU216HW,2013-03-10 02:20:00,
2013-03-09 21:25:00,38.0,24.5,30.24,SW,225,2.9,3.4,58,0.00,,,0.00,WUHU216HW,2013-03-10 02:25:00,
2013-03-09 21:30:00,37.8,24.3,30.24,SW,225,2.5,3.6,58,0.00,,,0.00,WUHU216HW,2013-03-10 02:30:00,
2013-03-09 21:35:00,37.8,24.3,30.24,WSW,248,1.8,3.6,58,0.00,,,0.00,WUHU216HW,2013-03-10 02:35:00,
2013-03-09 21:40:00,37.8,23.9,30.24,SW,225,0.0,3.1,57,0.00,,,0.00,WUHU216HW,2013-03-10 02:40:00,
2013-03-09 21:45:00,37.8,23.9,30.25,WSW,248,0.0,1.8,57,0.00,,,0.00,WUHU216HW,2013-03-10 02:45:00,
2013-03-09 21:50:00,37.8,23.1,30.25,SW,225,1.3,1.3,55,0.00,,,0.00,WUHU216HW,2013-03-10 02:50:00,
2013-03-09 21:55:00,38.0,23.6,30.25,SW,225,0.7,1.8,56,0.00,,,0.00,WUHU216HW,2013-03-10 02:55:00,
2013-03-09 22:00:00,38.0,23.1,30.24,SW,225,1.3,1.8,55,0.00,,,0.00,WUHU216HW,2013-03-10 03:00:00,
2013-03-09 22:05:00,37.8,23.1,30.24,SW,225,1.1,1.8,55,0.00,,,0.00,WUHU216HW,2013-03-10 03:05:00,
2013-03-09 22:10:00,37.8,23.1,30.24,SW,225,0.4,1.6,55,0.00,,,0.00,WUHU216HW,2013-03-10 03:10:00,
2013-03-09 22:15:00,37.4,22.7,30.24,WSW,248,0.2,0.7,55,0.00,,,0.00,WUHU216HW,2013-03-10 03:15:00,
2013-03-09 22:20:00,37.4,22.7,30.24,WSW,248,1.1,1.3,55,0.00,,,0.00,WUHU216HW,2013-03-10 03:20:00,
2013-03-09 22:25:00,37.1,22.8,30.24,WSW,248,0.2,1.3,56,0.00,,,0.00,WUHU216HW,2013-03-10 03:25:00,
2013-03-09 22:30:00,36.7,22.5,30.24,WSW,248,0.0,0.9,56,0.00,,,0.00,WUHU216HW,2013-03-10 03:30:00,
2013-03-09 22:35:00,36.4,22.6,30.24,WSW,248,0.0,0.2,57,0.00,,,0.00,WUHU216HW,2013-03-10 03:35:00,
2013-03-09 22:40:00,36.2,22.9,30.24,West,270,0.4,0.4,58,0.00,,,0.00,WUHU216HW,2013-03-10 03:40:00,
2013-03-09 22:45:00,35.8,22.1,30.24,West,270,0.0,0.4,57,0.00,,,0.00,WUHU216HW,2013-03-10 03:45:00,
2013-03-09 22:50:00,35.8,22.1,30.24,West,270,0.0,0.2,57,0.00,,,0.00,WUHU216HW,2013-03-10 03:50:00,
2013-03-09 22:55:00,35.8,22.1,30.24,WSW,248,0.0,0.0,57,0.00,,,0.00,WUHU216HW,2013-03-10 03:55:00,
2013-03-09 23:00:00,35.8,22.1,30.24,WSW,248,0.0,0.0,57,0.00,,,0.00,WUHU216HW,2013-03-10 04:00:00,
2013-03-09 23:05:00,35.6,22.3,30.24,WSW,248,0.0,0.0,58,0.00,,,0.00,WUHU216HW,2013-03-10 04:05:00,
2013-03-09 23:10:00,35.3,22.4,30.24,SW,225,0.0,0.0,59,0.00,,,0.00,WUHU216HW,2013-03-10 04:10:00,
2013-03-09 23:15:00,34.9,21.6,30.24,WSW,248,0.0,0.4,58,0.00,,,0.00,WUHU216HW,2013-03-10 04:15:00,
2013-03-09 23:20:00,34.9,21.6,30.24,SW,225,1.8,1.8,58,0.00,,,0.00,WUHU216HW,2013-03-10 04:20:00,
2013-03-09 23:25:00,34.7,21.9,30.24,SW,225,1.8,2.2,59,0.00,,,0.00,WUHU216HW,2013-03-10 04:25:00,
2013-03-09 23:30:00,34.4,22.3,30.24,WSW,248,0.4,2.2,61,0.00,,,0.00,WUHU216HW,2013-03-10 04:30:00,
2013-03-09 23:36:00,34.0,21.6,30.24,WSW,248,0.4,2.2,60,0.00,,,0.00,WUHU216HW,2013-03-10 04:36:00,
2013-03-09 23:41:00,33.8,21.4,30.24,WSW,248,1.1,1.1,60,0.00,,,0.00,WUHU216HW,2013-03-10 04:41:00,
2013-03-09 23:46:00,33.8,21.4,30.24,SW,225,1.8,1.8,60,0.00,,,0.00,WUHU216HW,2013-03-10 04:46:00,
2013-03-09 23:50:00,34.2,21.8,30.24,WSW,248,1.8,2.7,60,0.00,,,0.00,WUHU216HW,2013-03-10 04:50:00,
2013-03-09 23:55:00,34.6,22.5,30.24,WSW,248,2.5,2.7,61,0.00,,,0.00,WUHU216HW,2013-03-10 04:55:00,